| time (UTC) | temp F | wind direction | speed MPH | gust MPH | rain 1hr in | rain 24hr in | rain mn in | humidity % | barometer mb |
| 20260505173102 | 54 | 214 | 3.0 | 0.0 | 0.00 | 0.00 | 0.01 | 52 | 1005.3 |
| 20260505171545 | 54 | 213 | 3.0 | 0.0 | 0.00 | 0.00 | 0.01 | 51 | 1005.2 |
| 20260505170033 | 54 | 194 | 5.0 | 0.0 | 0.00 | 0.00 | 0.01 | 51 | 1005.0 |
| 20260505164507 | 54 | 204 | 4.0 | 0.0 | 0.00 | 0.00 | 0.01 | 51 | 1005.0 |
| 20260505163042 | 54 | 194 | 4.0 | 0.0 | 0.00 | 0.00 | 0.01 | 51 | 1005.0 |
| 20260505161510 | 54 | 207 | 3.0 | 0.0 | 0.00 | 0.00 | 0.01 | 52 | 1004.9 |
| 20260505153015 | 53 | 51 | 0.0 | 0.0 | 0.00 | 0.00 | 0.01 | 60 | 1004.2 |
| 20260505151509 | 53 | 52 | 0.0 | 0.0 | 0.00 | 0.00 | 0.01 | 63 | 1004.1 |
| 20260505150104 | 53 | 52 | 0.0 | 0.0 | 0.00 | 0.00 | 0.01 | 62 | 1004.0 |
| 20260505130103 | 52 | 58 | 2.0 | 0.0 | 0.00 | 0.00 | 0.01 | 58 | 1003.1 |
| 20260505124523 | 52 | 69 | 4.0 | 0.0 | 0.00 | 0.00 | 0.01 | 61 | 1002.8 |
| 20260505123104 | 52 | 286 | 3.0 | 0.0 | 0.00 | 0.00 | 0.01 | 66 | 1002.7 |
| 20260505121547 | 52 | 224 | 1.0 | 0.0 | 0.00 | 0.00 | 0.00 | 68 | 1002.7 |
| 20260505120027 | 53 | 16 | 0.0 | 0.0 | 0.00 | 0.00 | 0.00 | 68 | 1002.7 |
| 20260505114508 | 53 | 15 | 0.0 | 0.0 | 0.00 | 0.00 | 0.00 | 67 | 1002.5 |
| 20260505113003 | 53 | 16 | 0.0 | 0.0 | 0.00 | 0.00 | 0.00 | 67 | 1002.5 |
| 20260505111502 | 53 | 16 | 0.0 | 0.0 | 0.00 | 0.00 | 0.00 | 67 | 1002.5 |
| 20260505110104 | 53 | 15 | 0.0 | 0.0 | 0.00 | 0.00 | 0.00 | 66 | 1002.9 |
| 20260505101522 | 54 | 16 | 0.0 | 0.0 | 0.00 | 0.00 | 0.00 | 65 | 1002.5 |
| 20260505100002 | 54 | 16 | 0.0 | 0.0 | 0.00 | 0.00 | 0.00 | 62 | 1002.7 |
| 20260505094607 | 54 | 16 | 0.0 | 0.0 | 0.00 | 0.00 | 0.00 | 61 | 1002.8 |
| 20260505093032 | 54 | 16 | 0.0 | 0.0 | 0.00 | 0.00 | 0.00 | 63 | 1003.0 |
| 20260505091516 | 54 | 16 | 0.0 | 0.0 | 0.00 | 0.00 | 0.00 | 63 | 1002.9 |
| 20260505090005 | 54 | 16 | 0.0 | 0.0 | 0.00 | 0.00 | 0.00 | 62 | 1002.8 |
| 20260505084541 | 54 | 16 | 0.0 | 0.0 | 0.00 | 0.00 | 0.00 | 61 | 1002.8 |
| 20260505083015 | 55 | 15 | 0.0 | 0.0 | 0.00 | 0.00 | 0.00 | 60 | 1002.9 |
| 20260505081503 | 55 | 16 | 1.0 | 0.0 | 0.00 | 0.00 | 0.00 | 59 | 1002.8 |
| 20260505080045 | 55 | 76 | 0.0 | 0.0 | 0.00 | 0.00 | 0.00 | 60 | 1003.0 |
| 20260505074515 | 55 | 78 | 1.0 | 0.0 | 0.00 | 0.00 | 0.00 | 58 | 1002.9 |
| 20260505073104 | 55 | 109 | 1.0 | 0.0 | 0.00 | 0.00 | 0.00 | 59 | 1002.9 |
| 20260505071534 | 55 | 121 | 1.0 | 0.0 | 0.00 | 0.00 | 0.00 | 58 | 1002.9 |
| 20260505070015 | 56 | 126 | 2.0 | 0.0 | 0.00 | 0.00 | 0.17 | 59 | 1002.7 |
| 20260505064511 | 56 | 193 | 1.0 | 0.0 | 0.00 | 0.00 | 0.17 | 60 | 1002.7 |
| 20260505063042 | 56 | 126 | 2.0 | 0.0 | 0.00 | 0.00 | 0.17 | 60 | 1002.6 |
| 20260505061524 | 56 | 203 | 3.0 | 0.0 | 0.00 | 0.00 | 0.17 | 60 | 1002.5 |
| 20260505060010 | 56 | 185 | 1.0 | 0.0 | 0.00 | 0.00 | 0.17 | 59 | 1002.5 |
| 20260505054554 | 56 | 205 | 2.0 | 0.0 | 0.00 | 0.00 | 0.17 | 59 | 1002.5 |
| 20260505053029 | 56 | 240 | 1.0 | 0.0 | 0.00 | 0.00 | 0.17 | 57 | 1002.5 |
| 20260505051505 | 56 | 298 | 0.0 | 0.0 | 0.00 | 0.00 | 0.17 | 56 | 1002.2 |
| 20260505041606 | 59 | 298 | 0.0 | 0.0 | 0.00 | 0.00 | 0.17 | 50 | 1001.5 |
| 20260505034536 | 57 | 33 | 0.0 | 0.0 | 0.00 | 0.00 | 0.17 | 56 | 1001.2 |
| 20260505033013 | 58 | 34 | 0.0 | 0.0 | 0.00 | 0.00 | 0.17 | 55 | 1000.8 |
| 20260505031553 | 59 | 34 | 0.0 | 0.0 | 0.00 | 0.00 | 0.17 | 53 | 1000.6 |
| 20260505030044 | 59 | 34 | 0.0 | 0.0 | 0.00 | 0.00 | 0.17 | 53 | 1000.6 |
| 20260505024521 | 60 | 34 | 0.0 | 0.0 | 0.00 | 0.00 | 0.17 | 52 | 1000.2 |
| 20260505023007 | 61 | 34 | 0.0 | 0.0 | 0.00 | 0.00 | 0.17 | 49 | 1000.1 |
| 20260505021551 | 62 | 34 | 0.0 | 0.0 | 0.00 | 0.00 | 0.17 | 47 | 1000.1 |
| 20260505020035 | 62 | 34 | 0.0 | 0.0 | 0.00 | 0.00 | 0.17 | 44 | 1000.0 |
| 20260505014517 | 62 | 34 | 0.0 | 0.0 | 0.00 | 0.00 | 0.17 | 49 | 1000.1 |
| 20260505013006 | 63 | 34 | 0.0 | 0.0 | 0.00 | 0.00 | 0.17 | 51 | 1000.3 |
| 20260505011538 | 64 | 34 | 0.0 | 0.0 | 0.00 | 0.00 | 0.17 | 48 | 1000.3 |
| 20260505010026 | 64 | 34 | 0.0 | 0.0 | 0.00 | 0.00 | 0.17 | 45 | 1000.3 |
| 20260505004514 | 64 | 34 | 0.0 | 0.0 | 0.00 | 0.00 | 0.17 | 44 | 1000.1 |
| 20260505003057 | 64 | 35 | 1.0 | 0.0 | 0.00 | 0.00 | 0.17 | 40 | 1000.3 |
| 20260505001527 | 65 | 355 | 3.0 | 0.0 | 0.00 | 0.00 | 0.17 | 40 | 1000.4 |
| 20260505000007 | 65 | 101 | 4.0 | 0.0 | 0.00 | 0.00 | 0.17 | 40 | 1000.5 |
| 20260504234605 | 64 | 76 | 5.0 | 0.0 | 0.00 | 0.00 | 0.17 | 49 | 1000.5 |
| 20260504233034 | 60 | 36 | 3.0 | 0.0 | 0.00 | 0.00 | 0.17 | 59 | 1000.9 |
| 20260504231516 | 57 | 66 | 3.0 | 0.0 | 0.00 | 0.00 | 0.17 | 67 | 1000.8 |
| 20260504230002 | 58 | 96 | 0.0 | 0.0 | 0.00 | 0.00 | 0.17 | 78 | 1001.0 |
| 20260504224553 | 56 | 96 | 0.0 | 0.0 | 0.00 | 0.00 | 0.17 | 76 | 1001.2 |
| 20260504223038 | 55 | 24 | 1.0 | 0.0 | 0.00 | 0.00 | 0.17 | 71 | 1001.2 |
| 20260504221525 | 56 | 57 | 2.0 | 0.0 | 0.00 | 0.00 | 0.16 | 65 | 1001.8 |
| 20260504220018 | 62 | 59 | 6.0 | 0.0 | 0.00 | 0.00 | 0.05 | 50 | 1002.5 |
| 20260504214551 | 68 | 56 | 2.0 | 0.0 | 0.00 | 0.00 | 0.00 | 35 | 1000.7 |
| 20260504213045 | 69 | 188 | 2.0 | 0.0 | 0.00 | 0.00 | 0.00 | 28 | 1000.4 |
| 20260504211513 | 70 | 209 | 1.0 | 0.0 | 0.00 | 0.00 | 0.00 | 29 | 1000.4 |
| 20260504210004 | 71 | 209 | 1.0 | 0.0 | 0.00 | 0.00 | 0.00 | 29 | 1000.5 |
| 20260504204600 | 72 | 209 | 3.0 | 0.0 | 0.00 | 0.00 | 0.00 | 27 | 1000.6 |
| 20260504203034 | 74 | 209 | 2.0 | 0.0 | 0.00 | 0.00 | 0.00 | 26 | 1000.6 |
| 20260504201518 | 75 | 210 | 2.0 | 0.0 | 0.00 | 0.00 | 0.00 | 27 | 1000.6 |
| 20260504200006 | 74 | 217 | 2.0 | 0.0 | 0.00 | 0.00 | 0.00 | 26 | 1000.8 |
| 20260504194551 | 74 | 186 | 2.0 | 0.0 | 0.00 | 0.00 | 0.00 | 26 | 1000.7 |
| 20260504193100 | 74 | 167 | 2.0 | 0.0 | 0.00 | 0.00 | 0.00 | 26 | 1001.0 |
| 20260504191534 | 73 | 198 | 3.0 | 0.0 | 0.00 | 0.00 | 0.00 | 26 | 1001.2 |
| 20260504190014 | 74 | 200 | 3.0 | 0.0 | 0.00 | 0.00 | 0.00 | 25 | 1001.3 |
| 20260504184509 | 73 | 185 | 2.0 | 0.0 | 0.00 | 0.00 | 0.00 | 26 | 1001.6 |
| 20260504183102 | 72 | 195 | 2.0 | 0.0 | 0.00 | 0.00 | 0.00 | 27 | 1001.9 |
| 20260504181525 | 72 | 213 | 4.0 | 0.0 | 0.00 | 0.00 | 0.00 | 28 | 1002.0 |
| 20260504180018 | 72 | 198 | 3.0 | 0.0 | 0.00 | 0.00 | 0.00 | 28 | 1002.2 |
| 20260504174513 | 71 | 209 | 3.0 | 0.0 | 0.00 | 0.00 | 0.00 | 29 | 1002.2 |